Hovedside
METAR-TAF:

METAR-TAF

Lufthavner :

Skövde, Sverige

breddegrad: 58-27N, lengdegrad: 013-58E, høyde over havet: 98 m

Gjeldene værobservasjon

Denne rapporten ble laget for 24 minutter siden, klokken 19:50 UTC
Vind 7 kt fra Vest, skiftende mellom Sørvest og Vest-nordvest
Temperatur 16°C
Luftfuktighet 77%
Trykk 1008 hPa
Sikt 10 km eller mer

METAR: ESGR 281950Z AUTO 27007KT 230V300 9999 FEW019/// BKN026/// OVC051/// 16/12 Q1008

Tid: 22:14 (20:14 UTC)


TAF: fraværende

Værobservasjoner og værvarsel for over 4000 flyplasser (METAR- og TAF-rapporter).

Tilgjengelige stasjoner er representert av de røde og gule prikkene på kartet.

Hold musepekeren over prikken for å se navnet på stasjonen.

Klikk så for å se værobservasjoner og -varsler.

For å forandre kartet kan du klikke på den grønne knappen med svart kryss for å zoome inn, på den grønne knappen med strek for å zoome ut, eller på de grønne pilene for å se tilstøtende kart.


METAR-TAF: